TimeCST,TemperatureF,Dew PointF,Humidity,Sea Level PressureIn,VisibilityMPH,Wind Direction,Wind SpeedMPH,Gust SpeedMPH,PrecipitationIn,Events,Conditions,WindDirDegrees,DateUTC
12:39 AM,23.0,19.4,86,30.30,3.0,Calm,Calm,-,N/A,,Mostly Cloudy,0,2013-01-02 06:39:00
12:53 AM,24.1,21.0,88,30.34,3.0,Calm,Calm,-,N/A,,Overcast,0,2013-01-02 06:53:00
1:48 AM,21.2,19.4,93,30.29,3.0,Calm,Calm,-,N/A,,Scattered Clouds,0,2013-01-02 07:48:00
1:53 AM,23.0,19.0,85,30.33,3.0,Calm,Calm,-,N/A,,Scattered Clouds,0,2013-01-02 07:53:00
2:06 AM,23.0,21.2,93,30.29,3.0,Calm,Calm,-,N/A,,Mostly Cloudy,0,2013-01-02 08:06:00
2:53 AM,21.9,19.0,89,30.32,3.0,SSE,3.5,-,N/A,,Mostly Cloudy,160,2013-01-02 08:53:00
3:07 AM,21.2,19.4,93,30.28,3.0,Calm,Calm,-,N/A,,Scattered Clouds,0,2013-01-02 09:07:00
3:26 AM,21.2,19.4,93,30.29,3.0,Calm,Calm,-,N/A,,Mostly Cloudy,0,2013-01-02 09:26:00
3:53 AM,24.1,21.0,88,30.32,3.0,Calm,Calm,-,N/A,,Overcast,0,2013-01-02 09:53:00
4:53 AM,25.0,23.0,92,30.31,3.0,Calm,Calm,-,N/A,,Overcast,0,2013-01-02 10:53:00
5:53 AM,25.0,23.0,92,30.30,3.0,SSE,3.5,-,N/A,,Overcast,160,2013-01-02 11:53:00
6:53 AM,28.0,24.1,85,30.30,5.0,Calm,Calm,-,N/A,,Overcast,0,2013-01-02 12:53:00
7:53 AM,28.0,24.1,85,30.30,7.0,WSW,4.6,-,N/A,,Overcast,240,2013-01-02 13:53:00
8:41 AM,28.4,24.8,86,30.27,6.0,WSW,4.6,-,N/A,,Scattered Clouds,240,2013-01-02 14:41:00
9:53 AM,30.9,24.1,76,30.33,6.0,SW,10.4,-,N/A,,Haze,230,2013-01-02 15:53:00
10:53 AM,34.0,24.1,67,30.32,7.0,SW,9.2,-,N/A,,Clear,230,2013-01-02 16:53:00
11:53 AM,37.0,24.1,59,30.29,8.0,SW,9.2,-,N/A,,Clear,230,2013-01-02 17:53:00
12:53 PM,39.0,25.0,57,30.25,9.0,SW,10.4,-,N/A,,Clear,230,2013-01-02 18:53:00
1:53 PM,42.1,25.0,51,30.22,9.0,West,15.0,19.6,N/A,,Clear,260,2013-01-02 19:53:00
2:53 PM,43.0,25.0,49,30.22,9.0,West,10.4,18.4,N/A,,Clear,260,2013-01-02 20:53:00
3:53 PM,44.1,24.1,45,30.23,10.0,WNW,12.7,-,N/A,,Clear,300,2013-01-02 21:53:00
5:53 PM,39.0,26.1,60,30.27,10.0,NNW,4.6,-,N/A,,Clear,330,2013-01-02 23:53:00
6:53 PM,36.0,26.1,67,30.30,10.0,NW,5.8,-,N/A,,Clear,310,2013-01-03 00:53:00
7:09 PM,37.4,26.6,65,30.27,10.0,NW,5.8,-,N/A,,Mostly Cloudy,310,2013-01-03 01:09:00
7:53 PM,35.1,26.1,70,30.32,10.0,Calm,Calm,-,N/A,,Scattered Clouds,0,2013-01-03 01:53:00
8:53 PM,32.0,26.1,79,30.33,10.0,NNW,3.5,-,N/A,,Clear,330,2013-01-03 02:53:00
10:53 PM,32.0,26.1,79,30.34,10.0,NNW,4.6,-,N/A,,Clear,340,2013-01-03 04:53:00
11:53 PM,30.9,26.1,82,30.34,10.0,Variable,3.5,-,N/A,,Clear,0,2013-01-03 05:53:00